Location: Malvern Link
(52.1333°N, 2.3000°W)
Time: 14:40:25
(UTC+00:00)

SO-50 - Pass Details

Date: 06 July 2022
Orbit: 585 x 698 km, 64.6° (Epoch: 11 August)

Event Time Altitude Azimuth Distance (km) Brightness Sun altitude
Exits shadow 00:40:49 - 243° (WSW) 2,345 ? -14.9°
Reaches altitude 10° 00:41:30 10° 245° (WSW) 2,087 ? -14.9°
Maximum altitude 00:46:09 51° 322° (NW) 857 ? -14.8°
Drops below altitude 10° 00:50:56 10° 38° (NE) 2,152 ? -14.7°
Sets 00:53:23 0° 44° (NE) 3,081 ? -14.7°
